Location: Hamburg
(53.5554°N, 9.9941°E)
Time: 00:18:25
(UTC+01:00)

ISS - Pass Details

Date: 06 January 2018
Orbit: 401 x 406 km, 51.6° (Epoch: 17 January)

Event Time Altitude Azimuth Distance (km) Brightness Sun altitude
Exits shadow 06:48:22 28° 256° (WSW) 803 -2.8 -14.7°
Maximum altitude 06:49:53 60° 186° (S) 470 -3.5 -14.5°
Drops below altitude 10° 06:53:08 10° 106° (ESE) 1,468 0.5 -14.0°
Sets 06:55:14 0° 102° (ESE) 2,329 1.9 -13.7°
